sat.trackr.live / text

‹ back to catalog

QIANFAN-34

NORAD 61567 · 2024-185R

PAYLOAD ACTIVE UNKNOWN

§ Identity

Operator
Country
PRC
Launch date
2024-10-15
Launch site
TAISC
Launch vehicle
Mass (kg)
RCS (m²)

External: N2YO · Heavens-Above · Gunter

§ Orbital elements

Epoch: 2026-05-25T02:55:47.807040Z

Period
102.68 min
Inclination
88.9808°
Eccentricity
0.0005913
Mean motion
14.02451674 rev/d
Perigee alt
881.0 km
Apogee alt
889.6 km
Semi-major
7,263.5 km
B*
2.5771e-4
RAAN
59.9267°
Arg perigee
149.6866°
Mean anomaly
210.4657°
Rev number
9,225

§ Raw data

QIANFAN-341 61567U 24185R   26145.12208110  .00000410  00000+0  25771-3 0  99972 61567  88.9808  59.9267 0005913 149.6866 210.4657 14.02451674 92251

JSON: /api/v1/satellites/61567 · /tle

For live sub-satellite position, see the globe view (requires WebGL).

§ Visibility from observer

Set your observer location to see the next 7 days of passes ≥ 10°. The values pass through the URL so the page stays shareable.

No JS? Fill the form by hand. The geolocation button needs JavaScript.